[[{"header":{"parameterUnit":"m.s-1","parameterCategory":1,"la1":30.2991,"la2":30.254,"lo1":-89.0895,"lo2":-89.0444,"dy":0.0017,"dx":0.0017,"nx":28,"ny":28,"refTime":"2024-03-31T21:00:00:Z","depth":0,"parameterNumber":2,"parameterNumberName":"U-component_of_WINDS"},"data":[0,0,0,0,0,0,0,0,0,0,0,0,0,0,0,0,0,0,0,0,0,0,0,0,0,0,0,0,0,0,0,0,0,0,0,0,0,0,0,0,0,0,0,0,0,0,0,0,0,0,0,0,0,0,0,0,0,0,-0.5386,-0.5386,0,-0.5364,-0.5363,-0.5363,-0.5347,-0.5347,-0.5347,-0.5347,-0.5324,-0.5323,-0.5323,0,0,0,0,0,0,0,0,0,0,0,0,0,-0.5417,-0.5417,-0.5387,-0.5386,-0.5386,-0.5364,-0.5363,-0.5363,-0.5347,-0.5347,-0.5347,-0.5347,-0.5324,-0.5323,-0.5323,0,0,0,0,0,0,0,0,0,0,0,0,0,-0.54,-0.5417,-0.5387,-0.5375,-0.5374,-0.5364,-0.5363,-0.5363,-0.5347,-0.5347,-0.5347,-0.5347,-0.5324,-0.5323,-0.5323,-0.5322,0,0,-0.532,-0.532,0,0,0,0,0,0,0,0,-0.5401,-0.5399,-0.5377,-0.5376,-0.5375,-0.5358,-0.5366,-0.5349,-0.5347,-0.5357,-0.5347,-0.5347,-0.5335,-0.5334,-0.533,-0.5321,-0.532,-0.532,-0.532,-0.532,-0.5319,0,0,0,0,0,0,0,-0.5402,-0.54,-0.5377,-0.5377,-0.5375,-0.5372,-0.5369,-0.5362,-0.5348,-0.5357,-0.5355,-0.5353,-0.5335,-0.5331,-0.5329,-0.5319,-0.532,-0.532,-0.5319,-0.5319,-0.5308,-0.5308,0,0,0,0,0,0,-0.5405,-0.5401,-0.5378,-0.5377,-0.5388,-0.5371,-0.5368,-0.5364,-0.5348,-0.5345,-0.5353,-0.5352,-0.5332,-0.533,-0.5328,-0.5326,-0.532,-0.5319,-0.5318,-0.5308,-0.5308,-0.5308,0,0,0,0,0,0,-0.5406,-0.5403,-0.5379,-0.5388,-0.5385,-0.5371,-0.5366,-0.5363,-0.5359,-0.5345,-0.5342,-0.5351,-0.5332,-0.5329,-0.5323,-0.5325,-0.5318,-0.5318,-0.5307,-0.5308,-0.5308,-0.532,0,0,0,0,0,0,-0.5407,-0.5404,-0.5403,-0.5389,-0.5385,-0.5374,-0.5366,-0.5363,-0.5358,-0.5356,-0.5343,-0.534,-0.5331,-0.5324,-0.5323,-0.5323,-0.5317,-0.5307,-0.5308,-0.5308,-0.532,-0.5321,-0.5322,0,0,0,0,0,-0.5408,-0.5408,-0.5403,-0.54,-0.5384,-0.5374,-0.5372,-0.5362,-0.5358,-0.5357,-0.5348,-0.5341,-0.5325,-0.5324,-0.5322,-0.5322,-0.5307,-0.5307,-0.5308,-0.5319,-0.5321,-0.5322,0,0,0,0,0,0,-0.5423,-0.5405,-0.54,-0.5395,-0.5386,-0.5372,-0.537,-0.5364,-0.5356,-0.5355,-0.5342,-0.5339,-0.5335,-0.5328,-0.5327,-0.532,-0.5315,-0.5315,-0.5325,-0.5326,-0.5327,-0.5329,-0.5317,0,0,0,0,0,-0.5425,-0.5419,-0.5405,-0.5402,-0.5397,-0.5385,-0.538,-0.5373,-0.5363,-0.536,-0.535,-0.5341,-0.5334,-0.533,-0.5323,-0.5319,-0.5316,-0.5318,-0.532,-0.5321,-0.532,-0.5318,-0.5319,-0.5309,-0.5309,-0.5309,0,0,-0.5431,-0.5421,-0.5417,-0.5404,-0.5397,-0.5391,-0.5382,-0.5376,-0.5371,-0.5359,-0.5352,-0.5345,-0.5335,-0.533,-0.5327,-0.5324,-0.5322,-0.5321,-0.5322,-0.5321,-0.5318,-0.5319,-0.532,-0.5309,-0.5309,-0.5309,0,0,-0.5437,-0.5429,-0.5425,-0.5418,-0.5406,-0.5398,-0.5397,-0.5384,-0.5378,-0.5372,-0.5362,-0.5357,-0.5345,-0.5337,-0.5332,-0.5336,-0.5329,-0.5334,-0.534,-0.5338,-0.5338,-0.5339,-0.534,-0.534,-0.5334,-0.5334,-0.5334,0,-0.5445,-0.5436,-0.5424,-0.5419,-0.5413,-0.5402,-0.5398,-0.5391,-0.5378,-0.5375,-0.5371,-0.5356,-0.5348,-0.5341,-0.5342,-0.5339,-0.5337,-0.5335,-0.5339,-0.534,-0.534,-0.5341,-0.5341,-0.5335,-0.5335,-0.5335,-0.5335,0,-0.5446,-0.5439,-0.5438,-0.5425,-0.5419,-0.5415,-0.5403,-0.5399,-0.5392,-0.5384,-0.5377,-0.5368,-0.5358,-0.5356,-0.5349,-0.5348,-0.5346,-0.5341,-0.5336,-0.5342,-0.5342,-0.5342,-0.5336,-0.5336,-0.5336,-0.5335,0,0,-0.546,-0.5442,-0.5441,-0.5435,-0.5421,-0.5416,-0.5411,-0.5402,-0.5398,-0.539,-0.5385,-0.5375,-0.5371,-0.5365,-0.5357,-0.5355,-0.5358,-0.535,-0.535,-0.5352,-0.5356,-0.5359,-0.536,-0.5354,-0.5354,-0.5354,-0.5357,0,-0.5464,-0.5454,-0.5444,-0.5438,-0.5431,-0.5421,-0.5416,-0.5408,-0.54,-0.5394,-0.5386,-0.5379,-0.5373,-0.537,-0.5367,-0.5359,-0.5359,-0.5358,-0.5349,-0.5349,-0.5352,-0.536,-0.5363,-0.5366,-0.5357,-0.5357,-0.5357,0,-0.5467,-0.5459,-0.5452,-0.5439,-0.5436,-0.5432,-0.5422,-0.5416,-0.5407,-0.5401,-0.5395,-0.5387,-0.5381,-0.5377,-0.5369,-0.5368,-0.5364,-0.536,-0.5359,-0.5358,-0.5353,-0.5358,-0.5367,-0.5367,-0.5357,-0.5357,-0.5357,0,-0.5478,-0.5465,-0.5459,-0.5454,-0.5439,-0.5436,-0.543,-0.542,-0.5415,-0.5406,-0.5403,-0.5394,-0.5389,-0.5383,-0.5373,-0.5371,-0.5366,-0.5361,-0.5361,-0.5362,-0.536,-0.536,-0.5368,-0.5359,-0.5359,-0.5359,-0.5359,0,-0.5483,-0.5479,-0.5463,-0.5459,-0.5455,-0.5443,-0.5439,-0.5432,-0.5423,-0.5417,-0.5408,-0.5403,-0.5391,-0.5385,-0.5377,-0.5371,-0.5369,-0.5365,-0.5363,-0.5365,-0.5366,-0.5362,-0.5361,-0.5359,-0.5359,-0.5359,-0.5359,0,-0.5493,-0.5483,-0.5475,-0.5462,-0.5458,-0.5455,-0.5443,-0.5439,-0.5431,-0.5425,-0.5423,-0.541,-0.5403,-0.5392,-0.5382,-0.5377,-0.5372,-0.5369,-0.5375,-0.5373,-0.5374,-0.5374,-0.5379,-0.5379,-0.5371,-0.5371,-0.5371,0,-0.5497,-0.5493,-0.5479,-0.5475,-0.5469,-0.5462,-0.5456,-0.5445,-0.544,-0.5429,-0.5426,-0.5418,-0.541,-0.5398,-0.5389,-0.538,-0.5377,-0.5379,-0.5375,-0.5378,-0.5376,-0.5376,-0.5376,-0.538,-0.538,-0.538,-0.538,0,-0.5504,-0.5499,-0.5491,-0.5482,-0.5476,-0.5468,-0.546,-0.5457,-0.5444,-0.5439,-0.5431,-0.5425,-0.5414,-0.5406,-0.5396,-0.539,-0.5383,-0.5382,-0.5381,-0.5383,-0.5387,-0.5384,-0.5377,-0.5381,-0.5381,-0.5381,-0.5381,-0.5381,-0.5511,-0.5507,-0.5496,-0.5488,-0.5481,-0.5473,-0.5469,-0.546,-0.5453,-0.5443,-0.5437,-0.5429,-0.5419,-0.5406,-0.54,-0.5394,-0.5391,-0.539,-0.539,-0.539,-0.5391,-0.5388,-0.5392,-0.5392,-0.5392,-0.5392,-0.5392,0,-0.5517,-0.5509,-0.5502,-0.5491,-0.5484,-0.5478,-0.5469,-0.5464,-0.5457,-0.5449,-0.5442,-0.5432,-0.5424,-0.5414,-0.5405,-0.5402,-0.5399,-0.54,-0.54,-0.5399,-0.5394,-0.5395,-0.5403,-0.5403,-0.5403,-0.5403,-0.5403,-0.5403,-0.5519,-0.5512,-0.5506,-0.5496,-0.5488,-0.548,-0.5475,-0.5468,-0.5461,-0.5451,-0.5444,-0.5438,-0.5429,-0.5419,-0.5412,-0.5409,-0.5406,-0.5408,-0.5404,-0.54,-0.5399,-0.5398,-0.5399,-0.5408,-0.5408,-0.5409,-0.5409,-0.5409]},{"header":{"parameterUnit":"m.s-1","parameterCategory":1,"la1":30.2991,"la2":30.254,"lo1":-89.0895,"lo2":-89.0444,"dy":0.0017,"dx":0.0017,"nx":28,"ny":28,"refTime":"2024-03-31T21:00:00:Z","depth":0,"parameterNumber":3,"parameterNumberName":"V-component_of_WINDS"},"data":[0,0,0,0,0,0,0,0,0,0,0,0,0,0,0,0,0,0,0,0,0,0,0,0,0,0,0,0,0,0,0,0,0,0,0,0,0,0,0,0,0,0,0,0,0,0,0,0,0,0,0,0,0,0,0,0,0,0,4.2084,4.2085,0,4.222,4.2221,4.2223,4.2249,4.2248,4.2246,4.2245,4.2378,4.2382,4.2387,0,0,0,0,0,0,0,0,0,0,0,0,0,4.184,4.1844,4.2084,4.2085,4.2087,4.222,4.2222,4.2223,4.2249,4.2247,4.2246,4.2245,4.2376,4.2382,4.2387,0,0,0,0,0,0,0,0,0,0,0,0,0,4.1957,4.1845,4.2083,4.2116,4.212,4.2219,4.2222,4.2224,4.2249,4.2247,4.2246,4.2244,4.2375,4.2381,4.2388,4.2462,0,0,4.2409,4.2412,0,0,0,0,0,0,0,0,4.1951,4.1966,4.2109,4.2114,4.2119,4.2216,4.2184,4.2303,4.2249,4.22,4.2245,4.2244,4.2325,4.2336,4.2364,4.2468,4.2474,4.2409,4.2413,4.2416,4.2418,0,0,0,0,0,0,0,4.1943,4.1961,4.2137,4.2111,4.2117,4.2122,4.2137,4.2207,4.2269,4.2204,4.2206,4.2222,4.2327,4.2358,4.2368,4.2476,4.2409,4.2415,4.2419,4.2422,4.2649,4.2651,0,0,0,0,0,0,4.193,4.1954,4.2133,4.2141,4.2029,4.2127,4.2144,4.2186,4.2269,4.228,4.2224,4.2223,4.2347,4.236,4.2372,4.2467,4.2416,4.2423,4.2426,4.2647,4.265,4.2652,0,0,0,0,0,0,4.1924,4.1945,4.2127,4.2048,4.2072,4.2133,4.218,4.219,4.2221,4.2284,4.2294,4.2244,4.2346,4.2363,4.2441,4.2472,4.2426,4.2432,4.2645,4.2648,4.2651,4.2655,0,0,0,0,0,0,4.1917,4.1943,4.1973,4.2049,4.2076,4.2195,4.2182,4.2193,4.2233,4.2234,4.2306,4.2316,4.2346,4.243,4.2447,4.248,4.2437,4.2642,4.2646,4.265,4.2652,4.2657,4.2662,0,0,0,0,0,4.1908,4.1967,4.1975,4.1996,4.2115,4.2197,4.2212,4.2248,4.2236,4.2266,4.2306,4.2314,4.2465,4.2438,4.2457,4.2493,4.2641,4.2645,4.2649,4.265,4.2656,4.2662,0,0,0,0,0,0,4.189,4.1977,4.1987,4.2072,4.2127,4.2201,4.224,4.2253,4.2311,4.2309,4.2348,4.2364,4.244,4.2474,4.2442,4.257,4.2552,4.256,4.2546,4.2552,4.2557,4.2548,4.2443,0,0,0,0,0,4.1897,4.1958,4.203,4.2098,4.2125,4.2178,4.2215,4.2238,4.2295,4.2318,4.2364,4.2418,4.2478,4.2517,4.2575,4.2656,4.2673,4.269,4.2695,4.2699,4.2706,4.2754,4.2763,4.2666,4.2666,4.2666,0,0,4.191,4.1965,4.2001,4.2096,4.2141,4.2202,4.2197,4.2261,4.2307,4.2327,4.2405,4.244,4.2503,4.2584,4.2621,4.2614,4.2736,4.2705,4.2707,4.2713,4.2759,4.2768,4.2776,4.2669,4.2669,4.2668,0,0,4.1966,4.2013,4.2077,4.2123,4.2193,4.2228,4.2243,4.2316,4.2341,4.242,4.2437,4.249,4.2592,4.2637,4.2673,4.2747,4.2757,4.2765,4.2791,4.2837,4.2845,4.2852,4.288,4.2889,4.2771,4.2771,4.2771,0,4.1973,4.2068,4.2107,4.2172,4.2213,4.2237,4.2301,4.2343,4.2427,4.2455,4.2446,4.2576,4.2619,4.2712,4.2731,4.2758,4.2777,4.2758,4.2841,4.2848,4.2855,4.2883,4.2893,4.2772,4.2772,4.2772,4.2772,0,4.2074,4.2139,4.2182,4.2267,4.2312,4.2376,4.2424,4.2465,4.2484,4.2519,4.26,4.2653,4.2724,4.2747,4.2764,4.2842,4.2836,4.2833,4.2816,4.2865,4.2891,4.2902,4.2773,4.2773,4.2773,4.2773,0,0,4.2122,4.223,4.2245,4.2284,4.2364,4.2414,4.2479,4.2551,4.2587,4.2643,4.2699,4.2785,4.2784,4.2825,4.2848,4.2888,4.2946,4.2881,4.2883,4.2893,4.3037,4.304,4.3052,4.2952,4.2954,4.2956,4.3032,0,4.2189,4.2309,4.2347,4.2446,4.2508,4.2531,4.2588,4.2642,4.2676,4.2732,4.2769,4.2831,4.2824,4.2849,4.289,4.293,4.2976,4.2925,4.3004,4.3006,4.299,4.3065,4.3069,4.3139,4.3043,4.3045,4.3046,0,4.2284,4.2347,4.2453,4.2527,4.2554,4.2605,4.2675,4.2728,4.2789,4.2812,4.2859,4.2879,4.2946,4.2924,4.3018,4.2983,4.3017,4.3041,4.3045,4.3055,4.303,4.3079,4.3161,4.3173,4.3062,4.3061,4.306,0,4.2311,4.2422,4.2501,4.2533,4.2621,4.2656,4.2694,4.2754,4.2796,4.2856,4.2883,4.2949,4.2985,4.3035,4.3072,4.3052,4.3163,4.3143,4.3183,4.3182,4.3207,4.3205,4.3298,4.3225,4.3225,4.3225,4.3224,0,4.2384,4.2448,4.2515,4.2563,4.2637,4.2678,4.2749,4.2787,4.2841,4.2896,4.2918,4.2969,4.3014,4.3071,4.31,4.3174,4.3189,4.3209,4.3216,4.3209,4.3206,4.3233,4.3229,4.3228,4.3227,4.3226,4.3226,0,4.2427,4.2475,4.2563,4.2639,4.266,4.2711,4.2776,4.2823,4.2859,4.2929,4.2948,4.3003,4.3072,4.3113,4.3198,4.3218,4.33,4.3304,4.3281,4.3284,4.3323,4.3319,4.3437,4.3455,4.3368,4.3369,4.337,0,4.2471,4.2523,4.2606,4.2646,4.2685,4.2749,4.2793,4.2835,4.2879,4.2954,4.2993,4.3063,4.3122,4.3229,4.3276,4.3342,4.3349,4.3385,4.3359,4.335,4.3352,4.335,4.3356,4.339,4.3391,4.3392,4.3392,0,4.2545,4.2567,4.263,4.2703,4.2755,4.2813,4.287,4.2901,4.2953,4.3001,4.3073,4.3119,4.3208,4.3277,4.3348,4.3384,4.3397,4.34,4.3413,4.3407,4.3392,4.3403,4.3295,4.3398,4.3397,4.3397,4.3396,4.3396,4.2592,4.264,4.2707,4.2777,4.2826,4.288,4.2929,4.2973,4.3034,4.3112,4.3132,4.3208,4.3268,4.3365,4.3403,4.3461,4.3456,4.3474,4.3479,4.3484,4.3486,4.3381,4.3474,4.3474,4.3473,4.3473,4.3473,0,4.2669,4.2714,4.2779,4.2861,4.2916,4.2926,4.299,4.3035,4.3103,4.3159,4.3218,4.3301,4.3369,4.3422,4.3491,4.3528,4.3536,4.3545,4.3544,4.3552,4.3486,4.3469,4.3538,4.3538,4.3538,4.3538,4.3538,4.3538,4.2716,4.2798,4.2828,4.2934,4.2977,4.3054,4.3091,4.314,4.3186,4.3279,4.3337,4.3372,4.3427,4.3501,4.3564,4.3578,4.3603,4.3612,4.3626,4.3564,4.3557,4.355,4.3534,4.3616,4.3616,4.3689,4.3689,4.369]}]]